TimeHST,TemperatureF,Dew PointF,Humidity,Sea Level PressureIn,VisibilityMPH,Wind Direction,Wind SpeedMPH,Gust SpeedMPH,PrecipitationIn,Events,Conditions,WindDirDegrees,DateUTC
12:11 AM,66.2,66.2,100,30.05,10.0,NE,4.6,-,N/A,,Scattered Clouds,40,2013-03-25 10:11:00
12:21 AM,66.2,64.4,94,30.05,10.0,ENE,6.9,-,N/A,,Mostly Cloudy,60,2013-03-25 10:21:00
12:32 AM,66.2,66.2,100,30.05,10.0,NE,10.4,-,N/A,,Scattered Clouds,50,2013-03-25 10:32:00
12:41 AM,66.2,64.4,94,30.04,10.0,ENE,10.4,-,N/A,,Mostly Cloudy,60,2013-03-25 10:41:00
12:48 AM,66.2,64.4,94,30.04,10.0,NE,8.1,-,N/A,,Partly Cloudy,50,2013-03-25 10:48:00
12:56 AM,66.9,64.9,93,29.99,10.0,NE,9.2,-,N/A,,Partly Cloudy,40,2013-03-25 10:56:00
1:56 AM,66.9,63.9,90,29.98,10.0,NE,10.4,-,N/A,,Clear,40,2013-03-25 11:56:00
2:56 AM,64.9,63.9,96,29.96,10.0,ENE,5.8,-,N/A,,Clear,70,2013-03-25 12:56:00
3:56 AM,64.9,63.9,96,29.95,10.0,ENE,8.1,-,N/A,,Clear,70,2013-03-25 13:56:00
4:56 AM,63.0,61.9,96,29.97,10.0,East,6.9,-,N/A,,Clear,80,2013-03-25 14:56:00
5:56 AM,64.9,63.9,96,29.98,10.0,ESE,8.1,-,N/A,,Clear,110,2013-03-25 15:56:00
6:12 AM,64.4,62.6,94,30.03,10.0,East,6.9,-,N/A,,Scattered Clouds,90,2013-03-25 16:12:00
6:56 AM,61.9,61.9,100,30.01,10.0,ENE,6.9,-,N/A,,Clear,70,2013-03-25 16:56:00
7:56 AM,68.9,66.9,93,30.02,10.0,ENE,4.6,-,N/A,,Clear,70,2013-03-25 17:56:00
8:56 AM,73.9,63.9,71,30.03,10.0,ENE,5.8,-,N/A,,Clear,60,2013-03-25 18:56:00
9:56 AM,72.9,64.9,76,30.04,10.0,West,5.8,-,N/A,,Scattered Clouds,270,2013-03-25 19:56:00
10:15 AM,71.6,64.4,78,30.08,10.0,West,3.5,-,N/A,,Mostly Cloudy,260,2013-03-25 20:15:00
10:22 AM,73.4,64.4,73,30.08,10.0,Variable,3.5,-,N/A,,Scattered Clouds,0,2013-03-25 20:22:00
10:56 AM,78.8,66.2,65,30.08,10.0,WNW,8.1,-,N/A,,Clear,300,2013-03-25 20:56:00
11:56 AM,79.0,66.9,66,30.01,10.0,WNW,8.1,-,N/A,,Partly Cloudy,300,2013-03-25 21:56:00
12:22 PM,78.8,66.2,65,30.06,10.0,West,9.2,-,N/A,,Mostly Cloudy,280,2013-03-25 22:22:00
12:32 PM,80.6,66.2,61,30.05,10.0,West,8.1,-,N/A,,Scattered Clouds,280,2013-03-25 22:32:00
12:56 PM,79.9,65.8,62,29.98,10.0,West,10.4,-,N/A,,Scattered Clouds,260,2013-03-25 22:56:00
1:28 PM,80.6,66.2,61,30.03,10.0,Variable,6.9,-,N/A,,Mostly Cloudy,0,2013-03-25 23:28:00
1:56 PM,74.8,65.8,73,29.96,10.0,ENE,9.2,-,N/A,,Overcast,60,2013-03-25 23:56:00
2:10 PM,75.2,66.2,73,30.02,10.0,Variable,4.6,-,N/A,,Overcast,0,2013-03-26 00:10:00
2:56 PM,77.0,66.9,71,29.95,10.0,WSW,10.4,-,N/A,,Overcast,240,2013-03-26 00:56:00
3:56 PM,72.9,65.8,79,29.95,10.0,SSE,8.1,-,N/A,,Overcast,160,2013-03-26 01:56:00
4:47 PM,71.6,66.2,83,30.01,1.8,North,3.5,-,0.04,Rain,Heavy Rain,10,2013-03-26 02:47:00
4:56 PM,71.6,68.0,88,30.01,5.0,NNE,6.9,-,N/A,Rain,Light Rain,30,2013-03-26 02:56:00
5:05 PM,71.6,68.0,88,30.01,10.0,NNE,5.8,-,0.00,Rain,Light Rain,20,2013-03-26 03:05:00
5:17 PM,71.6,68.0,88,30.01,10.0,NNE,5.8,-,0.00,Rain,Light Rain,30,2013-03-26 03:17:00
5:56 PM,70.0,65.8,87,29.97,10.0,NNE,10.4,-,0.00,,Clear,20,2013-03-26 03:56:00
6:56 PM,68.0,65.8,93,30.00,10.0,NNE,10.4,-,N/A,,Clear,30,2013-03-26 04:56:00
7:56 PM,68.0,64.9,90,30.00,10.0,NNE,11.5,-,N/A,,Clear,30,2013-03-26 05:56:00
8:56 PM,66.9,63.0,87,30.00,10.0,NE,12.7,-,N/A,,Clear,40,2013-03-26 06:56:00
9:56 PM,68.0,63.0,84,30.02,10.0,NE,12.7,-,N/A,,Clear,40,2013-03-26 07:56:00
10:56 PM,66.9,61.9,84,30.01,10.0,ENE,10.4,-,N/A,,Clear,60,2013-03-26 08:56:00
11:56 PM,65.8,61.9,87,30.01,10.0,ENE,6.9,-,N/A,,Clear,70,2013-03-26 09:56:00